When you browse on this site, cookies collect data to enhance your experience and personalize the content and advertising you see.
Visit our Privacy Policy to learn more. By continuing to use the site, you agree to this use of cookies and data.
  • In Switzerland
  • List of Countries
  • For 7 days
  • Water Temperature
  • Weather Map
  • Weather Widgets
  • user-avatar
    Login

    Hourly Weather Portsmouth

    Today, 15 December, Sunday

    Time Temperature Precipitation Wind Pressure Humidity
    00:00 +7°C° 0 mm 6 mps 755 mmHg 70%
    01:00 +5°C° 0 mm 6 mps 756 mmHg 70%
    02:00 +5°C° 0 mm 6 mps 757 mmHg 70%
    03:00 +6°C° 0 mm 5 mps 758 mmHg 71%
    04:00 +5°C° 0 mm 5 mps 758 mmHg 71%
    05:00 +5°C° 0 mm 5 mps 759 mmHg 72%
    06:00 +5°C° 0 mm 5 mps 760 mmHg 74%
    07:00 +4°C° 0 mm 6 mps 761 mmHg 75%
    08:00 +5°C° 0 mm 6 mps 761 mmHg 69%
    09:00 +7°C° 0 mm 6 mps 762 mmHg 63%
    10:00 +8°C° 0 mm 7 mps 762 mmHg 57%
    11:00 +9°C° 0 mm 6 mps 762 mmHg 56%
    12:00 +10°C° 0 mm 6 mps 763 mmHg 55%
    13:00 +11°C° 0 mm 6 mps 763 mmHg 54%
    14:00 +12°C° 0 mm 5 mps 763 mmHg 56%
    15:00 +12°C° 0 mm 5 mps 763 mmHg 57%
    16:00 +12°C° 0 mm 4 mps 763 mmHg 59%
    17:00 +11°C° 0 mm 3 mps 764 mmHg 63%
    18:00 +10°C° 0 mm 3 mps 765 mmHg 67%
    19:00 +9°C° 0 mm 2 mps 765 mmHg 72%
    20:00 +8°C° 0 mm 2 mps 766 mmHg 74%
    21:00 +8°C° 0 mm 2 mps 766 mmHg 75%
    22:00 +8°C° 0 mm 2 mps 766 mmHg 77%
    23:00 +9°C° 0 mm 1 mps 766 mmHg 78%

    Tomorrow, 16 December, Monday

    Time Temperature Precipitation Wind Pressure Humidity
    00:00 +8°C° 0 mm 1 mps 767 mmHg 79%
    01:00 +8°C° 0 mm 1 mps 767 mmHg 80%
    02:00 +8°C° 0 mm 1 mps 767 mmHg 81%
    03:00 +8°C° 0 mm 1 mps 767 mmHg 82%
    04:00 +8°C° 0 mm 1 mps 767 mmHg 83%
    05:00 +7°C° 0 mm 2 mps 767 mmHg 85%
    06:00 +7°C° 0 mm 2 mps 767 mmHg 87%
    07:00 +7°C° 0 mm 2 mps 767 mmHg 89%
    08:00 +9°C° 0 mm 3 mps 767 mmHg 82%
    09:00 +10°C° 0 mm 3 mps 766 mmHg 76%
    10:00 +12°C° 0 mm 4 mps 766 mmHg 69%
    11:00 +14°C° 0 mm 5 mps 766 mmHg 65%
    12:00 +15°C° 0 mm 5 mps 765 mmHg 60%
    13:00 +17°C° 0 mm 5 mps 765 mmHg 56%
    14:00 +16°C° 0 mm 5 mps 764 mmHg 59%
    15:00 +17°C° 0 mm 4 mps 764 mmHg 61%
    16:00 +17°C° 0 mm 4 mps 763 mmHg 64%
    17:00 +15°C° 0 mm 4 mps 763 mmHg 67%
    18:00 +14°C° 0 mm 4 mps 763 mmHg 71%
    19:00 +14°C° 0 mm 4 mps 763 mmHg 75%
    20:00 +14°C° 0 mm 4 mps 763 mmHg 78%
    21:00 +14°C° 0 mm 5 mps 762 mmHg 81%
    22:00 +14°C° 0 mm 5 mps 762 mmHg 84%
    23:00 +14°C° 0 mm 5 mps 762 mmHg 87%

    Day after tomorrow, 17 December, Tuesday

    Time Temperature Precipitation Wind Pressure Humidity
    00:00 +15°C° 0 mm 5 mps 761 mmHg 90%
    01:00 +15°C° 0 mm 5 mps 761 mmHg 92%
    02:00 +16°C° 0 mm 6 mps 760 mmHg 93%
    03:00 +16°C° 0 mm 6 mps 759 mmHg 93%
    04:00 +16°C° 0 mm 6 mps 758 mmHg 94%
    05:00 +16°C° 0 mm 6 mps 758 mmHg 92%
    06:00 +17°C° 0 mm 6 mps 758 mmHg 90%
    07:00 +17°C° 0 mm 7 mps 757 mmHg 88%
    08:00 +18°C° 0.2 mm 7 mps 757 mmHg 86%
    09:00 +18°C° 0.2 mm 8 mps 756 mmHg 85%
    10:00 +18°C° 0.2 mm 8 mps 756 mmHg 83%
    11:00 +18°C° 0.4 mm 8 mps 755 mmHg 84%
    12:00 +18°C° 0.4 mm 8 mps 754 mmHg 85%
    13:00 +18°C° 0.4 mm 8 mps 754 mmHg 86%
    14:00 +18°C° 0.7 mm 7 mps 754 mmHg 85%
    15:00 +18°C° 0.7 mm 7 mps 754 mmHg 84%
    16:00 +18°C° 0.7 mm 7 mps 754 mmHg 84%
    17:00 +16°C° 0.5 mm 7 mps 755 mmHg 81%
    18:00 +14°C° 0.5 mm 7 mps 755 mmHg 79%
    19:00 +10°C° 0.5 mm 7 mps 756 mmHg 76%
    20:00 +9°C° 0 mm 7 mps 757 mmHg 74%
    21:00 +8°C° 0 mm 7 mps 758 mmHg 71%
    22:00 +5°C° 0 mm 7 mps 759 mmHg 68%
    23:00 +5°C° 0 mm 7 mps 759 mmHg 68%

    18 December, Wednesday

    Time Temperature Precipitation Wind Pressure Humidity
    00:00 +4°C° 0 mm 7 mps 760 mmHg 67%
    01:00 +3°C° 0 mm 7 mps 760 mmHg 67%
    02:00 +3°C° 0 mm 6 mps 761 mmHg 65%
    03:00 +2°C° 0 mm 6 mps 761 mmHg 64%
    04:00 +1°C° 0 mm 6 mps 761 mmHg 63%
    05:00 +1°C° 0 mm 6 mps 762 mmHg 62%
    06:00 +1°C° 0 mm 5 mps 762 mmHg 61%
    07:00 +1°C° 0 mm 5 mps 763 mmHg 60%
    08:00 +1°C° 0 mm 5 mps 763 mmHg 56%
    09:00 +3°C° 0 mm 4 mps 763 mmHg 52%
    10:00 +4°C° 0 mm 4 mps 764 mmHg 48%
    11:00 +5°C° 0 mm 4 mps 763 mmHg 46%
    12:00 +5°C° 0 mm 4 mps 763 mmHg 43%
    13:00 +7°C° 0 mm 3 mps 762 mmHg 41%
    14:00 +6°C° 0 mm 4 mps 762 mmHg 42%
    15:00 +6°C° 0 mm 4 mps 762 mmHg 43%
    16:00 +6°C° 0 mm 5 mps 762 mmHg 44%
    17:00 +6°C° 0 mm 5 mps 763 mmHg 46%
    18:00 +4°C° 0 mm 6 mps 763 mmHg 48%
    19:00 +3°C° 0 mm 6 mps 764 mmHg 50%
    20:00 +3°C° 0 mm 6 mps 764 mmHg 49%
    21:00 +2°C° 0 mm 7 mps 765 mmHg 49%
    22:00 0°C° 0 mm 7 mps 766 mmHg 48%
    23:00 -1°C° 0 mm 7 mps 766 mmHg 47%

    19 December, Thursday

    Time Temperature Precipitation Wind Pressure Humidity
    00:00 -1°C° 0 mm 7 mps 767 mmHg 46%
    01:00 -2°C° 0 mm 6 mps 767 mmHg 45%
    02:00 -3°C° 0 mm 6 mps 767 mmHg 46%
    03:00 -3°C° 0 mm 6 mps 768 mmHg 47%
    04:00 -4°C° 0 mm 6 mps 768 mmHg 48%
    05:00 -4°C° 0 mm 6 mps 769 mmHg 48%
    06:00 -4°C° 0 mm 5 mps 769 mmHg 47%
    07:00 -4°C° 0 mm 5 mps 770 mmHg 46%
    08:00 -3°C° 0 mm 4 mps 770 mmHg 43%
    09:00 -2°C° 0 mm 4 mps 771 mmHg 40%
    10:00 0°C° 0 mm 3 mps 772 mmHg 37%
    11:00 +1°C° 0 mm 3 mps 771 mmHg 34%
    12:00 +3°C° 0 mm 2 mps 771 mmHg 32%
    13:00 +5°C° 0 mm 1 mps 770 mmHg 29%
    14:00 +5°C° 0 mm 1 mps 770 mmHg 31%
    15:00 +5°C° 0 mm 1 mps 770 mmHg 32%
    16:00 +5°C° 0 mm 1 mps 770 mmHg 34%
    17:00 +3°C° 0 mm 2 mps 770 mmHg 38%
    18:00 +2°C° 0 mm 3 mps 770 mmHg 42%
    19:00 +1°C° 0 mm 3 mps 770 mmHg 46%
    20:00 0°C° 0 mm 4 mps 770 mmHg 48%
    21:00 0°C° 0 mm 4 mps 770 mmHg 50%
    22:00 0°C° 0 mm 4 mps 770 mmHg 51%
    23:00 0°C° 0 mm 4 mps 769 mmHg 53%

    20 December, Friday

    Time Temperature Precipitation Wind Pressure Humidity
    00:00 0°C° 0 mm 5 mps 769 mmHg 55%
    01:00 0°C° 0 mm 5 mps 769 mmHg 57%
    02:00 0°C° 0 mm 4 mps 769 mmHg 61%
    03:00 0°C° 0 mm 4 mps 769 mmHg 64%
    04:00 0°C° 0 mm 4 mps 769 mmHg 68%
    05:00 0°C° 0 mm 4 mps 769 mmHg 72%
    06:00 0°C° 0 mm 3 mps 769 mmHg 75%
    07:00 0°C° 0 mm 3 mps 770 mmHg 78%
    08:00 +2°C° 0 mm 3 mps 770 mmHg 74%
    09:00 +4°C° 0 mm 2 mps 771 mmHg 69%
    10:00 +5°C° 0 mm 2 mps 771 mmHg 65%
    11:00 +5°C° 0 mm 3 mps 771 mmHg 63%
    12:00 +7°C° 0 mm 3 mps 770 mmHg 61%
    13:00 +7°C° 0 mm 3 mps 770 mmHg 60%
    14:00 +6°C° 0 mm 4 mps 770 mmHg 61%
    15:00 +5°C° 0 mm 4 mps 770 mmHg 63%
    16:00 +5°C° 0 mm 4 mps 770 mmHg 65%
    17:00 +4°C° 0 mm 4 mps 771 mmHg 65%
    18:00 +4°C° 0 mm 4 mps 771 mmHg 65%
    19:00 +3°C° 0 mm 3 mps 771 mmHg 65%
    20:00 +3°C° 0 mm 4 mps 771 mmHg 67%
    21:00 +3°C° 0 mm 4 mps 772 mmHg 68%
    22:00 +3°C° 0 mm 4 mps 772 mmHg 69%
    23:00 +3°C° 0 mm 4 mps 772 mmHg 69%
    Show more